User: anonymous   Login
Location: Berg
(47.2344°N, 9.5296°E)
Time: 13:06:41
(UTC+00:00)
Language:

AO-7 - Orbit

View from above orbital plane
View from above orbital plane
View from above satellite
View from above satellite

Ground track
Ground track

The orbit data is extracted from the following two-line orbital elements,

1 07530U 74089B   21342.93634720 -.00000037  00000-0  55228-4 0  9996
2 07530 101.8801 317.4039 0012481  47.5494  18.9498 12.53651662153591
Epoch (UTC): 08 December 2021 22:28:20
Eccentricity: 0.0012481
inclination: 101.8801°
perigee height: 1439 km
apogee height: 1459 km
right ascension of ascending node: 317.4039°
argument of perigee: 47.5494°
revolutions per day: 12.53651662
mean anomaly at epoch: 18.9498°
orbit number at epoch: 15359

The dashed part of the orbit path shows where the satellite is in the earth's shadow,  

DLR